Location: Camp Roosevelt
(41.7914°N, 81.1673°W)
Time: 18:13:30
(UTC+00:00)

ISS - Visible Passes

Search period start: 23 June 2021 00:00
Search period end: 03 July 2021 00:00
Orbit: 417 x 422 km, 51.6° (Epoch: 22 June)

Date Brightness Start Highest point End Pass type
(mag) Time Alt. Az. Time Alt. Az. Time Alt. Az.
24 Jun -1.2 09:11:11 10° SSE 09:12:54 13° SE 09:14:38 10° E visible
26 Jun -2.7 09:11:22 10° SSW 09:14:31 38° SE 09:17:40 10° ENE visible
27 Jun -2.0 08:25:23 15° S 08:27:12 23° SE 08:29:54 10° E visible
28 Jun -1.4 07:39:47 14° SE 07:39:56 14° SE 07:41:42 10° E visible
28 Jun -3.6 09:12:59 10° WSW 09:16:20 73° NW 09:19:43 10° NE visible
29 Jun -3.7 08:27:04 24° SW 08:28:55 67° SE 08:32:16 10° ENE visible
30 Jun -3.0 07:41:21 38° SSE 07:41:32 38° SE 07:44:42 10° ENE visible
30 Jun -2.3 09:15:19 10° W 09:18:24 32° NNW 09:21:28 10° NE visible
01 Jul -1.5 06:55:35 18° E 06:55:35 18° E 06:56:57 10° E visible
01 Jul -3.0 08:28:31 17° W 08:30:51 46° NNW 08:34:07 10° NE visible
02 Jul -3.7 07:42:42 52° W 07:43:22 73° NW 07:46:45 10° NE visible
02 Jul -1.4 09:18:05 10° WNW 09:20:38 20° NNW 09:23:12 10° NE visible
